User: anonymous   Login
Location: Unspecified
(0.0000°N, 0.0000°E)
Time: 08:40:53
(UTC+01:00)
Language:

Meteor 2-8 Rocket - Orbit

View from above orbital plane
View from above orbital plane
View from above satellite
View from above satellite

Ground track
Ground track

The orbit data is extracted from the following two-line orbital elements,

1 13114U 82025B   17056.29172074  .00000044  00000-0  25937-4 0  9996
2 13114  82.5390 291.8027 0015798 103.3524  33.7842 13.84658587764926
Epoch (UTC): 25 February 2017 07:00:04
Eccentricity: 0.0015798
inclination: 82.5390°
perigee height: 936 km
apogee height: 959 km
right ascension of ascending node: 291.8027°
argument of perigee: 103.3524°
revolutions per day: 13.84658587
mean anomaly at epoch: 33.7842°
orbit number at epoch: 76492

The dashed part of the orbit path shows where the satellite is in the earth's shadow,  

DLR